Flag Weather past 2 weeks in Pinneberg, Schleswig-Holstein, Germany

Now
39 °F

Partly sunny.


Feels Like: 31 °F
Forecast: 33 / 40 °F
Wind: 14 mph from Southeast

Location: Hamburg-Fuhlsbuettel

Current Time: Nov 26, 2014 at 10:17:39 AM

Latest Report: Nov 26, 2014 at 9:50 AM


Visibility: N/A

Pressure: 30.21 "Hg

Humidity: 93%

Dew point: 37 °F

Location of PinnebergLocation

Historic Weather in Pinneberg — Graph

°F

Pinneberg temperature yesterday

Maximum temperature yesterday: 43 °F (at 12:20 AM)
Minimum temperature yesterday: 32 °F (at 5:20 AM)
Average temperature yesterday: 39 °F

Past Weeks' High & Low Weather Summary

 TemperatureHumidityPressure
High54 °F (Nov 14, 12:50 PM)100% (Nov 11, 9:20 AM)30.36 "Hg (Nov 11, 9:20 AM)
Low28 °F (Nov 21, 2:20 AM)76% (Nov 20, 1:20 PM)29.56 "Hg (Nov 16, 12:20 PM)
Average45 °F93%30.00 "Hg
* Reported Nov 11 9:20 AM — Nov 26 9:20 AM, Pinneberg, Weather by CustomWeather, © 2014

Note: Actual official high and low records may vary slightly from our data, if they occured in-between our weather recording intervals... More about our weather records

Advertising

Pinneberg weather history for previous 24 hours

 ConditionsComfort  
Time TempWeatherWind HumidityBarometerVisibility
9:20 AM
Nov 26
39 °FPartly sunny.13 mph93%30.21 "HgN/A
8:50 AM39 °FPartly sunny.13 mph93%30.21 "HgN/A
8:20 AM39 °FPartly sunny.15 mph93%30.21 "HgN/A
7:50 AM39 °FPassing clouds.13 mph93%30.21 "HgN/A
7:20 AM37 °FPassing clouds.13 mph100%30.21 "HgN/A
6:50 AM37 °FPassing clouds.9 mph100%30.21 "HgN/A
6:20 AM37 °FFog.8 mph100%30.21 "HgN/A
5:50 AM37 °FFog.10 mph100%30.24 "Hg4 mi
5:20 AM37 °FFog.10 mph100%30.24 "Hg3 mi
4:20 AM36 °FFog.10 mph100%30.24 "Hg3 mi
3:50 AM36 °FFog.9 mph100%30.24 "Hg3 mi
3:20 AM36 °FFog.10 mph100%30.27 "Hg3 mi
2:50 AM36 °FFog.9 mph100%30.27 "Hg1 mi
2:20 AM36 °FFog.8 mph100%30.27 "Hg1 mi
1:50 AM36 °FFog.8 mph100%30.27 "Hg1 mi
1:20 AM36 °FFog.8 mph100%30.27 "Hg1 mi
12:50 AM36 °FFog.8 mph100%30.30 "Hg1 mi
12:20 AM36 °FFog.6 mph100%30.30 "Hg1 mi
11:50 PM
Nov 25
36 °FFog.8 mph100%30.30 "Hg1 mi
11:20 PM36 °FFog.6 mph100%30.30 "Hg1 mi
10:50 PM36 °FFog.5 mph100%30.30 "Hg1 mi
10:20 PM37 °FFog.5 mph100%30.30 "Hg1 mi
9:50 PM37 °FFog.5 mph100%30.30 "Hg1 mi
9:20 PM37 °FFog.6 mph100%30.33 "Hg1 mi
8:50 PM37 °FFog.6 mph100%30.33 "Hg1 mi
8:20 PM39 °FFog.3 mph100%30.33 "Hg1 mi
7:50 PM39 °FFog.3 mph100%30.33 "Hg1 mi
7:20 PM39 °FFog.3 mph100%30.33 "Hg0 mi
6:50 PM39 °FFog.3 mph100%30.33 "Hg0 mi
6:20 PM41 °FFog.3 mph100%30.30 "Hg0 mi
5:50 PM41 °FFog.2 mph100%30.30 "Hg0 mi
5:20 PM41 °FFog.3 mph100%30.33 "Hg0 mi
4:50 PM41 °FFog.3 mph100%30.33 "Hg0 mi
4:20 PM41 °FFog.3 mph100%30.33 "Hg0 mi
3:50 PM43 °FFog.2 mph100%30.33 "Hg0 mi
3:20 PM43 °FFog.1 mph100%30.33 "Hg0 mi
2:50 PM43 °FFog.2 mph100%30.33 "Hg0 mi
2:20 PM43 °FFog.2 mph100%30.33 "Hg0 mi
1:50 PM43 °FFog.1 mph100%30.33 "Hg0 mi
1:20 PM43 °FFog.2 mph100%30.33 "Hg0 mi
12:50 PM43 °FFog.1 mph100%30.33 "Hg0 mi
12:20 PM43 °FFog.1 mph100%30.33 "Hg0 mi
11:50 AM43 °FFog.2 mph100%30.33 "Hg0 mi
11:20 AM41 °FFog.1 mph100%30.36 "Hg0 mi
10:50 AM41 °FFog.1 mph100%30.36 "Hg0 mi
10:20 AM39 °FFog.2 mph100%30.33 "Hg0 mi
Weather by CustomWeather, © 2014

See weather overviewHow to use our weather pages